Location: Newark
(49.8348°N, 24.0280°E)
Time: 04:38:46
(UTC+00:00)

Altair - All Passes

Search period start: 22 January 2020 00:00
Search period end: 01 February 2020 00:00
Orbit: 1502 x 1682 km, 47.2° (Epoch: 21 January)

Date Brightness Start Highest point End Pass type
(mag) Time Alt. Az. Time Alt. Az. Time Alt. Az.
22 Jan - 05:11:03 10° SE 05:12:23 10° ESE 05:13:43 10° ESE visible
22 Jan - 07:05:54 10° SSW 07:14:46 37° SE 07:23:42 10° ENE daylight
22 Jan - 09:08:35 10° WSW 09:18:37 69° SSE 09:28:37 10° E daylight
22 Jan - 11:13:06 10° W 11:23:17 77° S 11:33:15 10° ESE daylight
22 Jan - 13:17:56 10° WNW 13:27:34 51° SSW 13:36:56 10° SE daylight
22 Jan - 15:23:57 10° W 15:30:34 20° SW 15:37:04 10° S visible
23 Jan - 06:41:00 10° SSW 06:49:41 35° SE 06:58:26 10° E daylight
23 Jan - 08:43:26 10° WSW 08:53:26 67° SSE 09:03:25 10° E daylight
23 Jan - 10:47:53 10° W 10:58:05 77° S 11:08:05 10° ESE daylight
23 Jan - 12:52:42 10° WNW 13:02:26 54° SSW 13:11:54 10° SE daylight
23 Jan - 14:58:29 10° W 15:05:33 22° SW 15:12:28 10° S daylight
24 Jan - 06:16:08 10° SSW 06:24:36 32° SE 06:33:09 10° E daylight
24 Jan - 08:18:18 10° WSW 08:28:15 65° SSE 08:38:15 10° E daylight
24 Jan - 10:22:41 10° W 10:32:52 78° S 10:42:55 10° E daylight
24 Jan - 12:27:29 10° W 12:37:18 56° SSW 12:46:52 10° SE daylight
24 Jan - 14:33:05 10° W 14:40:31 24° SW 14:47:49 10° S daylight
25 Jan - 05:51:19 10° S 05:59:32 30° SE 06:07:51 10° E daylight
25 Jan - 07:53:11 10° SW 08:03:05 63° SSE 08:13:03 10° E daylight
25 Jan - 09:57:29 10° W 10:07:40 78° S 10:17:44 10° E daylight
25 Jan - 12:02:16 10° W 12:12:09 59° SSW 12:21:48 10° SE daylight
25 Jan - 14:07:43 10° W 14:15:29 26° SW 14:23:06 10° S daylight
26 Jan - 05:26:31 10° S 05:34:29 28° SE 05:42:31 10° E visible
26 Jan - 07:28:05 10° SW 07:37:56 60° SSE 07:47:50 10° E daylight
26 Jan - 09:32:17 10° W 09:42:28 78° S 09:52:33 10° E daylight
26 Jan - 11:37:03 10° W 11:47:00 61° SSW 11:56:44 10° SE daylight
26 Jan - 13:42:22 10° W 13:50:26 28° SW 13:58:21 10° S daylight
27 Jan - 05:01:46 10° S 05:09:26 26° SE 05:17:11 10° E visible
27 Jan - 07:03:00 10° SW 07:12:46 58° SSE 07:22:38 10° E daylight
27 Jan - 09:07:05 10° W 09:17:15 78° S 09:27:22 10° E daylight
27 Jan - 11:11:50 10° W 11:21:50 63° SSW 11:31:38 10° SE daylight
27 Jan - 13:17:02 10° W 13:25:23 31° SW 13:33:34 10° SSE daylight
28 Jan - 04:37:04 10° S 04:44:24 24° SE 04:51:49 10° E visible
28 Jan - 06:37:56 10° SW 06:47:36 56° SSE 06:57:25 10° ENE daylight
28 Jan - 08:41:54 10° W 08:52:02 78° S 09:02:10 10° E daylight
28 Jan - 10:46:38 10° W 10:56:40 66° SSW 11:06:32 10° ESE daylight
28 Jan - 12:51:44 10° W 13:00:19 33° SW 13:08:44 10° SSE daylight
29 Jan - 04:12:25 10° S 04:19:21 22° SE 04:26:23 10° E visible
29 Jan - 06:12:53 10° SW 06:22:28 53° SSE 06:32:12 10° ENE daylight
29 Jan - 08:16:42 10° WSW 08:26:50 77° S 08:36:59 10° E daylight
29 Jan - 10:21:26 10° W 10:31:29 68° SSW 10:41:24 10° ESE daylight
29 Jan - 12:26:27 10° WNW 12:35:15 35° SW 12:43:53 10° SSE daylight
30 Jan - 03:47:50 10° S 03:54:20 20° SE 04:00:55 10° E visible
30 Jan - 05:47:51 10° SW 05:57:20 51° SSE 06:06:59 10° ENE daylight
30 Jan - 07:51:33 10° WSW 08:01:38 77° S 08:11:47 10° E daylight
30 Jan - 09:56:14 10° W 10:06:18 69° SSW 10:16:16 10° ESE daylight
30 Jan - 12:01:11 10° WNW 12:10:10 38° SW 12:18:59 10° SSE daylight
30 Jan - 14:10:34 10° WSW 14:12:33 11° WSW 14:14:32 10° SW daylight
31 Jan - 03:23:20 10° SSE 03:29:20 18° SE 03:35:25 10° E visible
31 Jan - 05:22:50 10° SW 05:32:12 48° SSE 05:41:45 10° ENE visible
31 Jan - 07:26:22 10° WSW 07:36:26 76° S 07:46:34 10° E daylight
31 Jan - 09:31:02 10° W 09:41:07 71° SSW 09:51:09 10° ESE daylight
31 Jan - 11:35:55 10° WNW 11:45:04 40° SW 11:54:04 10° SSE daylight
31 Jan - 13:44:02 10° W 13:47:35 12° WSW 13:51:06 10° SW daylight
